Regional Weather Roundup
Issued by NWS

Home | Current Version | Previous Version | Graphics & Text | Print | Product List | Glossary On
Versions: 1 2 3 4 5 6 7 8 9 10 11 12 13 14 15 16 17 18 19 20 21 22 23 24 25 26 27 28 29 30 31 32 33 34 35 36 37 38 39 40 41 42 43 44 45 46 47 48 49 50
000
ASUS45 KTFX 050104
RWRMT
MONTANA REGIONAL WEATHER ROUNDUP
NATIONAL WEATHER SERVICE GREAT FALLS MT
700 PM MDT FRI SEP 04 2015

NOTE: "FAIR" INDICATES FEW OR NO CLOUDS BELOW 12000 FEET WITH NO
SIGNIFICANT WEATHER AND/OR OBSTRUCTIONS TO VISIBILITY.

MTZ001>007-043-050200-
WEST OF THE DIVIDE

CITY           SKY/WX    TMP DP  RH WIND       PRES   REMARKS
KALISPELL      PTCLDY    59  40  49 NE15G24   29.92S
MISSOULA       MOSUNNY   60  42  51 E13       29.88F
BUTTE          CLOUDY    49  44  83 CALM      29.95F
MULLAN PASS    PTSUNNY   48  33  56 CALM      29.93R
DEER LODGE       N/A     52  46  82 NW3       29.99S
EUREKA           N/A     57  46  67 CALM      29.96R
HAMILTON         N/A     59  45  58 VRB8      29.85S
LIBBY            N/A     64  37  36 N8        29.89F
$$

MTZ008-052>055-050200-
SOUTHWEST MONTANA

CITY           SKY/WX    TMP DP  RH WIND       PRES   REMARKS
BOZEMAN        MOCLDY    57  49  74 SW10      29.92F
DILLON         CLOUDY    55  42  61 NE14      29.90F
W YELLOWSTONE  MOCLDY    64  36  34 CALM      29.90F
$$

MTZ009-010-012-014-046-048-049-054-050200-
EAST SLOPES AND CENTRAL MONTANA

CITY           SKY/WX    TMP DP  RH WIND       PRES   REMARKS
CUT BANK       CLOUDY    45  44  97 N13       30.05R FOG
GREAT FALLS    CLOUDY    50  48  93 N8        30.01R
HELENA         CLOUDY    54  46  74 W8        29.96S
$$

MTZ011-013-016-021-045-047-050-051-050200-
NORTH CENTRAL MONTANA

CITY           SKY/WX    TMP DP  RH WIND       PRES   REMARKS
HAVRE          CLOUDY    55  50  83 E14       30.01F
LEWISTOWN      CLOUDY    56  46  69 N14G20    29.97F
N BAR RANCH    CLOUDY    55  45  67 N12       30.00F
CHINOOK          N/A     55  50  82 CALM      30.02S
FORT BENTON      N/A     54  48  82 NE5       30.02S
$$

MTZ017>020-022>027-061-062-050200-
NORTHEAST MONTANA

CITY           SKY/WX    TMP DP  RH WIND       PRES   REMARKS
GLASGOW        CLOUDY    67  49  52 N18G28    29.91R
JORDAN           N/A     67  50  54 N21       29.88R
SIDNEY         CLOUDY    73  57  56 N7          N/A
WOLF POINT     CLOUDY    71  51  49 NE14G20   29.90R
PLENTYWOOD       N/A     64  50  59 N14       29.93R
POPLAR           N/A     70  52  52 N16       29.88S
$$

MTZ028>42-056>058-050200-
SOUTHCENTRAL AND SOUTHEAST MONTANA

CITY           SKY/WX    TMP DP  RH WIND       PRES   REMARKS
BAKER          CLEAR     73  60  63 NE13      29.86R
BILLINGS       MOCLDY    65  45  48 N17       29.92R
LIVINGSTON     CLOUDY    60  49  66 E10       29.92F
MILES CITY     CLEAR     71  57  61 NE14      29.85R
FORSYTH          N/A     72  48  43 W5        29.84F
$$

REGIONAL REPORTS...DAKOTAS

CITY           SKY/WX    TMP DP  RH WIND       PRES   REMARKS
WILLISTON      PTCLDY    71  57  61 NE13      29.88R
MINOT          CLOUDY    66  57  72 N14       29.87R
DICKINSON      CLEAR     73  62  68 NE18      29.83R
BISMARCK       CLEAR     81  67  62 E5        29.79R
GRAND FORKS    MOCLDY    74  68  81 S5        29.82R
FARGO          CLOUDY    76  73  91 E6        29.82S
BUFFALO SD       N/A     79  63  57 N13       29.76R
RAPID CITY     MOCLDY    83  58  42 VRB6      29.79R
$$

REGIONAL REPORTS...WYOMING/IDAHO/WASHINGTON

CITY           SKY/WX    TMP DP  RH WIND       PRES   REMARKS
GILLETTE       LGT RAIN  74  49  41 S13G20    29.89R
SHERIDAN       MOCLDY    72  46  39 NW15      29.87R
BUFFALO WY     MOCLDY    73  48  41 N15G24    29.91R
CODY           PTCLDY    61  48  63 N16       29.89S
YELLOWSTONE LA   N/A     54  44  69 CALM      30.01F
IDAHO FALLS    MOCLDY    76  36  23 S8        29.74F
SALMON         PTSUNNY   50  46  87 S6        29.83F
BOISE          HAZE      64  39  39 W25G43    29.71R VSB 1
SPOKANE        PTSUNNY   68  30  24 N12       29.83F
$$

REGIONAL REPORTS...ALBERTA

CITY           SKY/WX    TMP DP  RH WIND       PRES   REMARKS
$$

REGIONAL REPORTS...SASKATCHEWAN

CITY           SKY/WX    TMP DP  RH WIND       PRES   REMARKS
SWIFT CURRENT  CLOUDY    48  46  93 NE13      30.07F
$$


USA.gov is the U.S. government's official web portal to all federal, state and local government web resources and services.